Regional Weather Roundup
Issued by NWS

Home | Current Version | Previous Version | Text Only | Print | Product List | Glossary Off
Versions: 1 2 3 4 5 6 7 8 9 10 11 12 13 14 15 16 17 18 19 20 21 22 23 24 25 26 27 28 29 30 31 32 33 34 35 36 37 38 39 40 41 42 43 44 45 46 47 48 49 50

000
ASUS45 KABQ 241701
RWRNM
NEW MEXICO REGIONAL WEATHER ROUNDUP
NATIONAL WEATHER SERVICE ALBUQUERQUE NM
1100 AM MDT MON APR 24 2017

NOTE: "FAIR" MEANS FEW OR NO CLOUDS BELOW 12,000 FEET AGL WITH NO
       SIGNIFICANT WEATHER OR OBSTRUCTIONS TO VISION.

      THIS PRODUCT IS RELEASED AS TWO VERSIONS.  ONE VERSION NEAR
      THE TOP OF THE HOUR CONTAINING PRELIMINARY DATA FROM ALBUQUERQUE
      AND OTHER STATIONS.  A FINAL VERSION WITH ADDITIONAL DATA IS
      ISSUED ABOUT 10 MINUTES AFTER THE HOUR.

NMZ501-503-504-510>518-241800-
NORTHWEST PLATEAU/NORTHCENTRAL MOUNTAINS

CITY           SKY/WX    TMP DP  RH WIND       PRES   REMARKS
FARMINGTON     FAIR      66  21  18 NW9       29.82F
LOS ALAMOS     FAIR      62  15  16 SW16G24   29.95S
SANTA FE       FAIR      70  21  15 W18G26    29.89F
TAOS             N/A     64  19  17 W15G24    29.90F
ANGEL FIRE     FAIR      56  20  23 SW33G40   29.91F

$$
NMZ402-403-502-505>509-241800-
WESTCENTRAL MOUNTAINS/SOUTHWEST MOUNTAINS

CITY           SKY/WX    TMP DP  RH WIND       PRES   REMARKS
GALLUP         FAIR      65  22  19 SW24G39   29.94S
GRANTS         FAIR      67  18  15 W21G30    29.96F
SILVER CITY    FAIR      73  17  12 W18G28    29.99S

$$
NMZ407-409-411-412-241800-
SOUTHERN DESERTS

CITY           SKY/WX    TMP DP  RH WIND       PRES   REMARKS
DEMING         FAIR      78  18  10 W20G29    29.93F
LAS CRUCES     FAIR      78  20  11 SW18G24   29.95S
HOLLOMAN AFB   FAIR      81  19  10 W23G29    29.92F
ALAMOGORDO     FAIR      77  25  14 SW10      29.91F
T OR C         FAIR      76  26  15 S7        29.88F

$$
NMZ519>523-241800-
CENTRAL VALLEYS/CENTRAL HIGHLANDS

CITY           SKY/WX    TMP DP  RH WIND       PRES   REMARKS
ALBUQUERQUE    PTSUNNY   70  22  16 W18G24    29.89F
DOUBLE EAGLE   MOSUNNY   70  27  19 SW23G35   29.92F
MORIARTY ARPT  FAIR      72  22  15 W15G22    29.93F
CLINES CORNERS FAIR      66  18  15 W40G47    29.91F
BELEN          FAIR      73  20  13 S15       29.90F
SOCORRO        FAIR      75  22  13 E3        29.87F

$$
NMZ524>526-539-540-241800-
SOUTHCENTRAL MOUNTAINS

CITY           SKY/WX    TMP DP  RH WIND       PRES   REMARKS
RUIDOSO        NOT AVBL

$$
NMZ527>531-241800-
NORTHEAST HIGHLANDS/NORTHEAST PLAINS

CITY           SKY/WX    TMP DP  RH WIND       PRES   REMARKS
LAS VEGAS      FAIR      68  11  11 W36G46    29.84F
RATON          FAIR      72  15  11 W24       29.77S
CLAYTON        FAIR      76  23  14 W13G22    29.73F

$$
NMZ532>537-241800-
EASTCENTRAL PLAINS

CITY           SKY/WX    TMP DP  RH WIND       PRES   REMARKS
SANTA ROSA     FAIR      78  25  14 SW25G31   29.77F
TUCUMCARI      FAIR      84  27  12 W23G36    29.71F
CANNON AFB     FAIR      76  36  23 SW20      29.79F
CLOVIS AIRPORT FAIR      77  41  27 W18       29.79F

$$
NMZ028-029-538-241800-
SOUTHEAST PLAINS

CITY           SKY/WX    TMP DP  RH WIND       PRES   REMARKS
ROSWELL        FAIR      85  36  17 S17G26      N/A
ARTESIA        FAIR      86  32  14 SW20G28   29.79F
CARLSBAD       FAIR      79  38  22 E8        29.82F


$$




USA.gov is the U.S. government's official web portal to all federal, state and local government web resources and services.